Flag for Egypt Weather past 2 weeks in Port Said, Egypt

Now
82 °F

Clear.


Feels Like: 82 °F
Forecast: 80 / 90 °F
Wind: 13 mph from Northwest

Location: Port Said Airport

Current Time: Aug 23, 2014 at 12:45:08 AM

Latest Report: Aug 22, 2014 at 11:00 PM


Visibility: 10 mi

Pressure: 29.80 "Hg

Humidity: 40%

Dew point: 55 °F

Location of Port SaidLocation

Historic Weather in Port Said — Graph

°F

Port Said temperature yesterday

Maximum temperature yesterday: 88 °F (at 2:00 PM)
Minimum temperature yesterday: 79 °F (at 3:00 AM)
Average temperature yesterday: 83 °F

Past Weeks' High & Low Weather Summary

 TemperatureHumidityPressure
High93 °F (Aug 14, 2:00 PM)89% (Aug 12, 6:00 AM)29.95 "Hg (Aug 12, 6:00 AM)
Low77 °F (Aug 10, 7:00 AM)40% (Aug 22, 11:00 PM)29.62 "Hg (Aug 17, 8:00 PM)
Average83 °F74%29.80 "Hg
* Reported Aug 7 11:00 PM — Aug 22 11:00 PM, Port Said, Weather by CustomWeather, © 2014

Note: Actual official high and low records may vary slightly from our data, if they occured in-between our weather recording intervals... More about our weather records

Advertising

Port Said weather history for previous 24 hours

 ConditionsComfort  
Time TempWeatherWind HumidityBarometerVisibility
11:00 PM
Aug 22
82 °FClear.13 mph40%29.80 "Hg10 mi
10:00 PM82 °FClear.13 mph42%29.80 "Hg10 mi
9:00 PM82 °FClear.14 mph79%29.80 "Hg10 mi
8:00 PM84 °FClear.15 mph74%29.80 "Hg10 mi
7:00 PM84 °FSunny.17 mph79%29.77 "Hg10 mi
6:00 PM86 °FSunny.16 mph75%29.77 "Hg10 mi
5:00 PM86 °FSunny.15 mph79%29.80 "Hg10 mi
4:00 PM88 °FSunny.10 mph70%29.80 "Hg10 mi
3:00 PM88 °FSunny.7 mph70%29.80 "Hg10 mi
2:00 PM88 °FSunny.8 mph66%29.83 "Hg10 mi
1:00 PM86 °FSunny.8 mph70%29.83 "Hg10 mi
12:00 PM84 °FScattered clouds.7 mph74%29.86 "HgN/A
11:00 AM84 °FScattered clouds.8 mph74%29.86 "HgN/A
10:00 AM82 °FScattered clouds.8 mph79%29.86 "HgN/A
9:00 AM81 °FScattered clouds.8 mph84%29.86 "HgN/A
8:00 AM81 °FScattered clouds.7 mph84%29.86 "HgN/A
7:00 AM79 °FScattered clouds.7 mph84%29.83 "HgN/A
6:00 AM79 °FPassing clouds.8 mph84%29.83 "HgN/A
5:00 AM79 °FClear.7 mph84%29.83 "Hg10 mi
4:00 AM79 °FClear.6 mph84%29.83 "Hg10 mi
3:00 AM79 °FClear.10 mph84%29.86 "Hg10 mi
2:00 AM81 °FClear.10 mph79%29.86 "Hg10 mi
1:00 AM81 °FClear.12 mph79%29.86 "Hg10 mi
12:00 AM81 °FClear.13 mph79%29.89 "Hg10 mi
Weather by CustomWeather, © 2014

See weather overviewHow to use our weather pages